Wind_Speed
41 41 40 38 38 38 37 37 36 35 35 35 34 33 32 33 33 32 32 32 32 31 31 31 30 30 30 30 29 30 30 31 31 32 33 34 34 35 36 37 38 39 41 42
42 41 39 40 40 39 38 38 37 37 37 37 36 34 33 33 33 32 32 32 32 32 31 31 31 30 30 30 30 30 31 31 32 33 33 34 35 36 37 38 40 41 42 43
43 41 40 41 40 40 39 38 37 37 37 37 37 36 34 34 34 33 33 32 32 32 32 31 31 31 31 30 30 31 32 33 33 34 35 35 36 37 39 40 41 43 43 45
44 43 41 41 41 40 40 39 38 38 38 38 38 37 35 34 34 33 33 33 33 32 32 32 32 32 32 32 32 33 34 34 35 35 36 37 38 39 40 41 42 43 45 46
45 43 42 41 41 41 41 39 39 39 39 40 38 39 35 34 34 33 33 33 33 33 33 33 33 33 33 33 34 35 35 35 36 37 38 39 40 41 41 42 43 45 46 47
46 44 43 42 41 41 41 40 40 40 41 41 39 39 37 34 33 33 33 34 34 34 34 34 34 35 35 35 36 36 35 36 37 38 39 40 41 42 43 44 45 46 47 48
46 45 44 43 42 42 41 40 40 41 42 42 39 39 38 35 33 33 33 34 34 35 35 35 35 36 36 36 37 37 37 37 39 39 40 41 42 43 44 45 46 47 48 49
46 46 45 43 43 42 41 41 40 41 41 41 40 40 39 36 34 34 33 34 35 35 35 36 36 36 37 37 37 38 38 39 40 41 42 42 43 44 45 46 47 48 49 49
45 46 46 44 43 43 42 42 41 42 42 42 43 41 40 37 35 35 34 34 34 35 36 36 36 37 37 38 38 38 39 40 41 42 43 44 45 46 47 47 48 49 50 50
44 45 45 45 44 43 43 42 42 42 43 43 44 42 40 38 36 36 36 35 35 36 36 36 37 37 37 38 38 39 40 41 42 43 44 45 46 46 47 49 50 50 50 50
42 44 44 44 44 43 43 43 44 44 45 44 45 44 41 39 38 37 36 36 37 37 37 37 37 38 38 38 39 40 41 42 43 44 45 46 46 47 49 50 50 50 50 51
41 42 44 44 44 43 44 43 43 44 45 45 45 45 42 40 39 38 38 37 38 38 38 38 38 38 39 39 40 41 42 43 44 45 46 47 47 48 49 50 50 51 51 52
41 41 42 44 45 44 44 43 43 44 44 44 44 45 42 41 39 39 39 39 39 40 39 39 39 39 40 40 41 42 43 44 45 46 47 47 48 49 50 50 50 51 51 52
42 42 43 43 44 43 42 42 42 43 44 44 43 42 41 40 40 41 41 41 41 41 40 40 40 40 41 41 42 43 44 45 46 46 47 47 48 49 49 49 50 51 52 53
40 40 41 42 43 42 42 42 41 41 41 42 41 41 40 40 40 40 41 41 41 41 41 41 41 41 41 42 42 43 44 45 46 47 47 47 48 49 49 49 51 52 52 53
40 40 40 40 41 42 42 41 41 41 41 41 41 40 38 39 39 39 40 40 41 41 41 41 41 41 42 42 43 43 44 45 46 46 47 47 48 49 49 50 51 52 52 52
39 38 40 40 40 40 41 40 40 40 39 39 39 39 39 39 39 40 40 40 41 41 41 41 41 41 42 43 43 44 44 45 46 46 46 47 48 48 49 50 51 51 51 51
35 37 37 39 40 41 40 39 39 39 39 39 39 39 39 39 39 39 39 39 40 40 41 41 41 41 42 42 43 44 44 44 45 45 46 47 47 48 48 49 50 50 50 51
32 34 35 36 38 39 38 38 37 37 38 38 38 39 39 39 39 39 39 39 39 39 40 40 41 41 42 42 42 43 43 43 44 44 45 46 47 47 47 48 48 49 49 49
31 31 32 34 35 36 35 36 36 36 37 36 37 37 38 38 38 38 38 38 38 39 39 39 40 40 41 42 42 42 43 43 43 44 45 45 46 46 46 47 47 48 47 48
30 30 30 30 32 32 32 33 34 35 35 35 36 36 37 37 37 37 37 38 38 38 38 39 39 40 40 41 42 42 42 42 42 43 44 44 45 45 45 46 46 46 45 44
28 29 29 29 30 28 29 30 31 31 31 32 33 34 35 35 36 36 37 37 37 37 37 38 38 39 39 40 40 40 41 41 42 43 43 44 44 45 45 45 44 44 43 41
27 28 28 28 28 27 27 28 29 29 29 30 31 32 32 33 34 35 36 36 37 37 37 37 38 38 38 38 38 39 40 41 42 43 43 43 44 44 44 44 43 42 41 39
23 25 27 28 28 28 27 27 28 29 29 30 30 30 31 32 33 34 35 35 36 36 36 37 37 37 37 37 38 39 40 40 41 41 42 43 43 43 43 42 41 40 39 38
22 23 24 26 27 27 27 28 28 28 29 30 30 30 31 32 32 33 34 34 35 35 35 36 37 37 37 38 39 39 40 40 41 41 42 43 43 42 41 40 40 39 37 36
21 21 22 24 25 26 26 27 27 28 29 30 30 31 31 32 32 33 33 33 33 34 35 36 37 37 38 38 39 39 39 40 40 41 42 42 41 40 39 38 37 36 34 32
Wind_Direction
236 236 236 238 239 239 239 239 240 240 242 242 242 241 240 241 240 241 242 243 244 245 246 247 248 249 250 252 254 256 258 260 262 264 265 267 270 271 274 276 277 279 280 282
236 237 236 236 237 239 239 240 240 240 242 243 243 242 241 241 240 241 242 243 244 245 247 248 249 250 251 253 255 257 260 262 264 266 268 270 272 274 276 278 280 281 282 283
236 236 236 237 237 239 240 241 241 242 243 244 244 242 240 240 240 241 242 243 244 246 248 249 249 250 251 253 256 259 261 264 266 268 270 272 274 276 278 280 281 282 284 284
236 235 235 236 237 239 240 241 242 243 244 244 244 243 239 240 240 241 243 244 246 247 249 250 250 251 253 255 257 260 263 266 268 270 272 274 276 277 279 281 282 284 285 285
235 235 236 237 237 239 240 241 242 243 244 244 243 245 239 240 242 242 243 245 246 248 249 251 251 252 254 256 258 261 264 267 269 271 273 275 277 279 281 282 284 285 285 286
234 234 235 236 237 238 240 241 242 242 243 243 242 245 242 240 242 244 245 246 248 249 250 252 253 254 255 257 260 263 266 268 270 272 274 277 279 280 282 283 285 286 287 287
233 234 235 236 237 238 239 240 241 242 242 243 242 244 245 243 243 245 247 248 249 249 251 253 254 255 257 259 262 265 267 269 271 273 275 278 279 281 283 285 286 287 288 288
234 234 234 235 237 238 238 239 241 244 245 246 245 245 246 246 246 247 249 250 250 251 251 253 255 256 258 260 263 265 268 270 272 274 277 278 280 282 284 285 287 288 288 289
233 234 234 235 235 236 237 238 240 243 245 247 247 246 247 249 250 250 251 251 251 252 252 253 255 257 259 261 264 266 268 271 273 276 277 279 281 283 284 286 287 289 289 289
231 234 234 234 235 235 237 237 239 241 244 246 247 248 248 249 251 252 253 253 252 252 252 253 255 258 260 263 265 268 270 272 275 277 278 280 281 284 285 286 288 288 289 289
230 233 233 234 235 235 236 237 238 241 243 246 249 250 250 252 253 253 254 253 253 253 254 255 257 259 262 264 267 269 272 274 276 277 279 280 282 284 285 286 287 288 288 289
229 232 233 234 234 235 236 237 239 241 243 245 248 251 252 254 254 255 255 255 256 256 256 256 258 261 263 266 268 270 273 275 277 278 279 281 282 284 285 286 287 287 288 289
228 231 233 234 233 234 235 236 238 241 243 245 247 251 252 254 255 255 255 256 257 257 258 259 260 262 264 267 269 271 273 275 277 278 279 281 282 284 285 286 286 287 288 289
229 231 233 234 236 236 237 237 238 240 242 244 246 249 251 253 254 254 255 256 258 259 261 260 262 263 266 268 269 271 274 275 277 278 279 281 282 284 285 286 287 287 288 289
230 232 233 234 235 235 236 237 238 240 242 244 246 248 249 251 253 254 255 256 257 259 261 261 262 264 266 268 270 272 274 276 278 279 280 281 283 284 285 286 287 288 289 289
229 232 233 234 235 235 236 236 238 239 241 243 244 245 246 247 250 252 254 256 257 258 260 261 263 264 266 268 270 272 274 276 278 279 280 281 283 285 285 286 287 289 289 290
231 232 234 236 236 236 236 237 239 240 242 244 245 246 246 247 250 253 255 257 259 260 260 262 263 265 267 269 270 272 274 276 278 279 280 281 284 285 285 286 287 288 289 290
230 231 234 236 236 239 239 239 241 242 243 244 246 247 249 250 251 253 256 257 259 261 261 262 265 267 269 270 272 273 274 276 277 279 280 282 284 284 285 286 287 288 290 291
230 231 233 235 237 240 240 240 242 244 245 246 248 249 251 252 254 255 257 258 260 262 262 263 265 267 269 270 271 273 275 276 277 278 280 282 283 284 285 286 287 289 291 292
232 232 234 236 238 239 240 242 244 246 248 248 249 250 251 251 253 254 256 258 259 261 262 263 265 267 269 270 271 273 274 275 277 278 280 282 283 284 285 287 288 290 291 292
233 234 235 235 238 240 240 242 245 247 249 248 249 249 250 251 253 253 255 257 259 261 263 265 267 269 270 271 272 274 275 277 278 280 282 283 284 285 286 288 289 290 292 293
233 233 233 235 238 239 241 244 246 248 248 248 249 249 249 251 252 253 255 257 259 261 264 266 269 270 271 272 273 274 276 278 280 281 283 284 284 285 286 288 289 291 292 293
231 231 232 235 238 241 243 246 247 247 248 249 250 249 250 251 254 256 257 259 261 262 265 267 270 271 272 272 274 275 277 279 282 283 284 285 285 285 287 288 289 290 291 292
231 232 235 235 237 241 243 246 248 248 249 250 251 251 252 254 255 257 258 260 261 264 266 268 270 271 271 272 274 276 278 281 282 283 284 285 285 286 287 288 288 289 291 293
234 237 237 237 239 241 243 245 247 249 250 251 252 254 256 257 257 258 259 261 262 265 267 269 271 272 272 273 275 277 279 281 282 283 285 286 285 285 286 285 286 287 289 291
237 239 240 241 243 245 245 246 249 251 252 254 256 257 257 257 259 260 261 264 266 268 270 272 273 273 273 274 276 278 278 280 282 283 286 286 284 284 284 284 284 286 287 289
Height
5683 5688 5692 5697 5700 5703 5706 5709 5712 5714 5716 5718 5721 5724 5726 5728 5730 5732 5734 5736 5738 5739 5741 5743 5744 5746 5747 5749 5750 5751 5752 5752 5753 5753 5753 5753 5753 5752 5751 5749 5748 5746 5744 5742
5674 5679 5684 5686 5690 5693 5697 5700 5703 5706 5708 5710 5712 5716 5718 5720 5722 5724 5726 5728 5730 5732 5733 5735 5737 5738 5740 5742 5743 5744 5745 5745 5745 5745 5745 5745 5744 5743 5742 5740 5738 5736 5734 5731
5664 5671 5674 5677 5681 5684 5688 5692 5695 5697 5699 5701 5704 5707 5710 5712 5714 5716 5718 5720 5722 5724 5726 5727 5729 5731 5733 5734 5735 5736 5737 5737 5737 5737 5737 5736 5735 5734 5732 5730 5728 5726 5723 5720
5653 5659 5663 5667 5671 5675 5679 5683 5685 5688 5690 5692 5695 5697 5703 5704 5706 5709 5711 5712 5714 5716 5718 5719 5721 5723 5725 5726 5727 5728 5728 5729 5729 5728 5728 5727 5726 5724 5722 5720 5718 5715 5712 5709
5643 5649 5653 5657 5663 5666 5669 5673 5676 5678 5680 5682 5685 5687 5694 5695 5698 5700 5702 5704 5706 5708 5710 5711 5713 5715 5716 5718 5719 5720 5720 5720 5720 5719 5718 5717 5716 5714 5712 5710 5707 5704 5701 5697
5632 5637 5642 5647 5652 5655 5659 5663 5665 5667 5669 5672 5677 5678 5683 5687 5690 5692 5694 5695 5697 5699 5701 5703 5705 5706 5708 5709 5710 5710 5711 5711 5710 5710 5709 5707 5706 5704 5702 5699 5696 5693 5690 5686
5621 5626 5631 5636 5641 5645 5649 5653 5656 5657 5659 5663 5668 5670 5674 5679 5682 5684 5685 5687 5688 5690 5692 5694 5696 5697 5699 5700 5701 5701 5701 5701 5701 5700 5699 5697 5695 5693 5691 5688 5685 5681 5678 5674
5610 5615 5621 5626 5631 5635 5639 5643 5647 5650 5652 5655 5658 5661 5666 5670 5672 5674 5676 5678 5679 5681 5683 5685 5687 5688 5689 5690 5691 5692 5692 5691 5691 5690 5688 5686 5684 5682 5679 5676 5673 5669 5665 5661
5599 5604 5610 5615 5620 5625 5628 5632 5637 5640 5642 5645 5647 5652 5657 5660 5662 5665 5667 5668 5670 5672 5674 5676 5677 5679 5680 5681 5682 5682 5682 5681 5680 5679 5677 5675 5673 5670 5668 5664 5660 5656 5652 5648
5588 5593 5598 5603 5608 5613 5618 5622 5626 5629 5631 5634 5638 5642 5647 5651 5653 5655 5657 5659 5661 5663 5664 5667 5668 5669 5670 5671 5672 5672 5671 5670 5669 5668 5666 5664 5661 5659 5655 5652 5648 5644 5640 5635
5577 5582 5587 5592 5597 5603 5608 5612 5615 5619 5622 5626 5629 5635 5638 5641 5643 5645 5647 5650 5652 5653 5655 5657 5658 5660 5661 5661 5661 5661 5660 5659 5658 5657 5655 5652 5650 5647 5643 5639 5635 5631 5627 5623
5566 5571 5576 5582 5587 5592 5596 5601 5606 5610 5613 5617 5620 5626 5627 5630 5633 5635 5637 5639 5641 5643 5645 5647 5648 5650 5651 5651 5651 5650 5649 5648 5647 5645 5643 5640 5637 5634 5631 5627 5623 5619 5614 5610
5555 5560 5565 5570 5577 5581 5585 5591 5595 5599 5602 5606 5610 5616 5617 5620 5622 5624 5627 5629 5631 5633 5635 5637 5638 5639 5640 5640 5640 5639 5638 5636 5635 5633 5631 5628 5625 5622 5618 5614 5610 5606 5602 5598
5545 5550 5556 5561 5566 5571 5576 5581 5584 5588 5591 5596 5601 5605 5608 5609 5611 5614 5616 5618 5620 5622 5625 5626 5627 5628 5629 5629 5628 5627 5626 5625 5623 5621 5618 5616 5613 5609 5606 5602 5598 5594 5589 5585
5535 5540 5546 5551 5555 5561 5566 5570 5574 5578 5582 5586 5591 5594 5597 5599 5601 5603 5605 5607 5610 5612 5613 5615 5616 5617 5617 5617 5617 5616 5614 5613 5611 5609 5606 5604 5600 5597 5593 5589 5585 5581 5576 5572
5526 5531 5536 5541 5545 5550 5555 5560 5564 5568 5572 5576 5579 5583 5587 5588 5590 5592 5594 5597 5599 5601 5602 5604 5605 5606 5606 5606 5605 5604 5603 5601 5599 5597 5594 5591 5588 5585 5581 5577 5573 5568 5564 5559
5517 5523 5527 5532 5536 5539 5545 5552 5555 5559 5563 5566 5569 5574 5576 5578 5580 5582 5584 5586 5588 5590 5591 5592 5593 5594 5594 5594 5593 5592 5591 5589 5587 5584 5582 5579 5576 5572 5568 5564 5560 5556 5551 5546
5508 5513 5518 5522 5527 5530 5539 5542 5545 5549 5552 5555 5559 5562 5565 5568 5570 5572 5574 5576 5577 5578 5580 5581 5581 5582 5582 5581 5581 5579 5578 5577 5575 5572 5570 5567 5564 5560 5556 5552 5547 5543 5538 5533
5500 5505 5509 5513 5517 5521 5528 5533 5536 5539 5543 5546 5549 5552 5554 5557 5559 5562 5564 5565 5566 5567 5568 5569 5570 5570 5570 5569 5568 5567 5566 5564 5562 5560 5558 5555 5552 5548 5544 5540 5535 5531 5526 5521
5493 5497 5502 5505 5509 5513 5520 5523 5526 5529 5533 5536 5539 5541 5544 5546 5550 5553 5553 5554 5555 5556 5557 5558 5558 5558 5558 5557 5556 5555 5554 5552 5550 5548 5546 5543 5539 5536 5532 5528 5523 5519 5514 5509
5486 5489 5493 5497 5501 5505 5511 5513 5516 5522 5524 5527 5529 5531 5534 5536 5539 5541 5542 5544 5545 5545 5546 5546 5547 5546 5546 5545 5544 5543 5542 5540 5539 5536 5534 5531 5527 5524 5520 5516 5512 5507 5503 5498
5479 5483 5487 5490 5494 5500 5502 5505 5509 5511 5513 5516 5518 5521 5524 5526 5528 5530 5531 5533 5534 5535 5535 5535 5535 5535 5534 5533 5533 5532 5530 5529 5527 5525 5522 5519 5516 5512 5508 5505 5500 5496 5492 5488
5472 5477 5480 5484 5489 5491 5493 5496 5499 5501 5504 5506 5509 5511 5514 5516 5518 5519 5521 5522 5523 5524 5524 5524 5524 5524 5523 5522 5521 5520 5519 5517 5516 5513 5510 5507 5504 5500 5497 5493 5490 5486 5482 5478
5465 5469 5472 5476 5479 5482 5485 5488 5490 5493 5495 5497 5500 5502 5504 5506 5508 5509 5511 5512 5513 5513 5514 5514 5513 5513 5512 5511 5510 5509 5508 5506 5504 5502 5499 5496 5493 5489 5486 5483 5479 5476 5472 5469
5459 5461 5464 5468 5472 5474 5477 5480 5482 5484 5486 5489 5491 5493 5494 5496 5498 5499 5500 5501 5502 5503 5503 5503 5503 5502 5501 5500 5499 5498 5497 5495 5493 5490 5487 5484 5481 5478 5475 5472 5469 5466 5463 5459
5453 5456 5458 5461 5464 5467 5470 5472 5474 5476 5478 5480 5482 5483 5484 5486 5488 5489 5490 5491 5492 5492 5492 5492 5492 5491 5490 5489 5488 5487 5485 5484 5482 5479 5476 5473 5470 5468 5465 5462 5460 5456 5454 5451